Regional Weather Roundup
Issued by NWS

Home | Current Version | Previous Version | Graphics & Text | Print | Product List | Glossary On
Versions: 1 2 3 4 5 6 7 8 9 10 11 12 13 14 15 16 17 18 19 20 21 22 23 24 25 26 27 28 29 30 31 32 33 34 35 36 37 38 39 40 41 42 43 44 45 46 47 48 49 50
000
ASUS44 KMEG 300110
RWRTN
TENNESSEE HOURLY STATE WEATHER ROUNDUP
NATIONAL WEATHER SERVICE MEMPHIS TN
800 PM CDT TUE JUL 29 2014

TNZ002-004-019-021-049-052-054-088>092-300200-
WEST TENNESSEE

CITY           SKY/WX    TMP DP  RH WIND       PRES   REMARKS
MEMPHIS INTL   PTCLDY    75  53  46 N8        30.09F
NWS MEMPHIS      N/A     72 N/A N/A MISG        N/A
JACKSON        CLEAR     70  56  61 CALM      30.09F
DYERSBURG      CLEAR     72  50  46 NE3       30.10S
UNION CITY     CLEAR     70  61  73 CALM      30.08S
PARIS          CLEAR     67  56  67 CALM      30.09S
LEXINGTON      CLEAR     70  57  64 W3        30.08S
SAVANNAH       CLEAR     66  61  82 CALM      30.09S
$$

TNZ008-025-027-028-033-062-065-066-300200-
NORTH MIDDLE TENNESSEE

CITY           SKY/WX    TMP DP  RH WIND       PRES   REMARKS
NASHVILLE      CLEAR     73  52  47 N6        30.07R
DICKSON        CLEAR     70  54  56 CALM      30.08S
PORTLAND       CLEAR     70  54  56 N3        30.06F
CLARKSVILLE    CLEAR     71  52  50 N7        30.07S
LEBANON        CLEAR     72  53  51 NE5       30.05F
SMYRNA         CLEAR     72  54  53 N7        30.07S
MURFREESBORO   CLEAR     73  55  53 N3        30.06S
COOKEVILLE     CLEAR     64  61  88 CALM      30.08S
CROSSVILLE     CLEAR     66  53  63 CALM      30.11S
$$

TNZ061-075-076-078-094-096-097-300200-
SOUTH MIDDLE TENNESSEE

CITY           SKY/WX    TMP DP  RH WIND       PRES   REMARKS
LEWISBURG      PTCLDY    70  57  63 CALM      30.07S
FAYETTEVILLE   CLEAR     68  52  56 N8G22     30.08R
TULLAHOMA      CLEAR     66  55  68 CALM      30.09S
WINCHESTER     CLEAR     66  57  72 CALM      30.08S
MCMINNVILLE    CLEAR     66  61  82 CALM      30.08S
COLUMBIA       CLEAR     72  57  60 CALM      30.06S
SHELBYVILLE    PTCLDY    70  57  64 CALM      30.08S
$$

TNZ017-018-042-046-047-300200-
NORTHEAST TENNESSEE

CITY           SKY/WX    TMP DP  RH WIND       PRES   REMARKS
TRI CITIES     PTCLDY    65  50  58 N5        30.07R
ELIZABETHTON   PTCLDY    64  50  59 VRB5        N/A
$$

TNZ012-013-036-069-073-074-300200-
CENTRAL EAST TENNESSEE

CITY           SKY/WX    TMP DP  RH WIND       PRES   REMARKS
KNOXVILLE      PTCLDY    68  51  54 N7        30.06R
OAK RIDGE      CLEAR     69  52  54 CALM      30.09R
GATLINBURG     MOCLDY    66  52  59 CALM      30.08R
MORRISTOWN     CLEAR     66  52  59 N5        30.09R
$$

TNZ083-085-099-300200-
SOUTHEAST TENNESSEE

CITY           SKY/WX    TMP DP  RH WIND       PRES   REMARKS
CHATTANOOGA    CLEAR     72  52  49 N8        30.06S
$$

SKY/WX REPORTED AS FAIR MEANS FEW OR NO CLOUDS BELOW
12 THOUSAND FEET.




USA.gov is the U.S. government's official web portal to all federal, state and local government web resources and services.